This is the latest recevied weather packets stored in our database for station/object VE7PRT-1. If no packets are shown the sender has not sent any weather packets the latest 10 day(s).
| Time | Temp. | Humidity | Pressure | Rain* | Wind** | Luminosity | Snow |
|---|---|---|---|---|---|---|---|
| 1778139879 | 11.11° C | 97% | 1020.8 hPa | 0 mm | - | - | - |
| 1778139033 | 11.11° C | 97% | 1020.8 hPa | 0 mm | - | - | - |
| 1778138209 | 10.56° C | 97% | 1020.7 hPa | 0 mm | - | - | - |
| 1778137314 | 10.56° C | 96% | 1020.7 hPa | 0 mm | - | - | - |
| 1778136439 | 10.56° C | 96% | 1020.7 hPa | 0 mm | - | - | - |
| 1778135539 | 10.56° C | 96% | 1020.8 hPa | 0 mm | - | - | - |
| 1778134769 | 10.56° C | 96% | 1020.8 hPa | 0 mm | - | - | - |
| 1778133947 | 10° C | 96% | 1020.8 hPa | 0 mm | - | - | - |
| 1778133079 | 10° C | 96% | 1020.9 hPa | 0 mm | - | - | - |
| 1778132274 | 10.56° C | 96% | 1020.8 hPa | 0 mm | - | - | - |
| 1778131546 | 10.56° C | 96% | 1020.8 hPa | 0 mm | - | - | - |
| 1778130739 | 10.56° C | 96% | 1020.8 hPa | 0 mm | - | - | - |
| 1778129925 | 10.56° C | 96% | 1021 hPa | 0 mm | - | - | - |
| 1778129199 | 10.56° C | 95% | 1020.9 hPa | 0 mm | - | - | - |
| 1778128474 | 11.11° C | 94% | 1020.9 hPa | 0 mm | - | - | - |
| 1778127644 | 11.67° C | 93% | 1020.8 hPa | 0 mm | - | - | - |
| 1778126775 | 11.67° C | 93% | 1020.8 hPa | 0 mm | - | - | - |
| 1778125999 | 12.22° C | 92% | 1020.7 hPa | 0 mm | - | - | - |
| 1778125192 | 12.22° C | 92% | 1020.7 hPa | 0 mm | - | - | - |
| 1778124385 | 12.22° C | 92% | 1020.8 hPa | 0 mm | - | - | - |
| 1778123579 | 12.22° C | 92% | 1020.7 hPa | 0 mm | - | - | - |
| 1778122714 | 12.78° C | 91% | 1020.8 hPa | 0 mm | - | - | - |
| 1778121987 | 12.78° C | 91% | 1020.8 hPa | 0 mm | - | - | - |
| 1778121106 | 12.78° C | 91% | 1020.8 hPa | 0 mm | - | - | - |
| 1778120274 | 13.33° C | 90% | 1020.8 hPa | 0 mm | - | - | - |
* Rain latest hour (hover to see other rain measurements)
** Current wind speed in m/s (hover to see current wind gust speed)